Date String (YYYY-MM-DD hh:mm:ss) UTC,Instrument flags,absolute air pressure of the measurement (hPa),sample flow rate (lpm),inlet stack bypass flow (lpm),air temperature of the measurement (°C),ambient temperature measured by the external sensor (°C),aerosol sample conditioner tube jacket temperature (°C),OPC LED temperature (°C),internal box temperature (°C),relative humidity of the measurement (%),span deviation,mass concentration of particles derived from Lorenz-Mie calculation of OPC scattering (μg/m³),mass concentration of particles derived from Lorenz-Mie calculation of OPC scattering (μg/m³),mass concentration of particles derived from Lorenz-Mie calculation of OPC scattering (μg/m³)
DateTimeUTC,F1_M11,P_M11,Q1_M11,Q2_M11,T1_M11,T2_M11,T3_M11,T4_M11,T5_M11,U1_M11,ZSPAN_M11,X0_M11,X2_M11,X1_M11
2023-08-25 01:00:00,SystemResetWarning,0831.6,5.01,000.00,027.7,025.7,000.0,036.0,029.4,33.5,0001.2,0012.88,0006.83,0005.98
2023-08-25 01:01:00,SystemResetWarning,0831.7,5.00,000.00,027.8,026.0,000.0,036.1,029.5,33.4,0001.3,0013.16,0006.85,0005.98
2023-08-25 01:02:00,SystemResetWarning,0831.7,4.99,000.00,027.8,026.0,000.0,036.0,029.5,33.3,0001.6,0013.16,0006.82,0005.98
2023-08-25 01:03:00,SystemResetWarning,0831.7,4.99,000.00,027.8,024.6,000.0,035.9,029.2,33.2,0001.5,0012.78,0006.79,0005.99
2023-08-25 01:04:00,SystemResetWarning,0831.6,5.00,000.00,027.7,023.8,000.0,035.9,028.9,33.4,0001.4,0012.85,0006.82,0006.00
2023-08-25 01:05:00,SystemResetWarning,0831.7,5.02,000.00,027.6,023.9,000.0,035.8,028.9,33.6,0001.2,0013.46,0006.89,0006.00
2023-08-25 01:06:00,SystemResetWarning,0831.6,4.99,000.00,027.5,024.3,000.0,035.9,029.0,33.7,0001.4,0013.59,0007.01,0006.00
2023-08-25 01:07:00,SystemResetWarning,0831.7,5.00,000.00,027.6,024.7,000.0,035.9,029.1,33.6,0001.2,0014.31,0007.05,0006.00
2023-08-25 01:08:00,SystemResetWarning,0831.7,5.00,000.00,027.6,025.2,000.0,035.9,029.2,33.5,0001.4,0014.83,0007.07,0005.99
2023-08-25 01:09:00,SystemResetWarning,0831.7,5.00,000.00,027.6,025.6,000.0,035.9,029.3,33.3,0001.5,0014.76,0007.11,0006.00
2023-08-25 01:10:00,SystemResetWarning,0831.7,4.99,000.00,027.7,026.0,000.0,036.0,029.4,33.2,0002.1,0015.13,0007.27,0006.01
2023-08-25 01:11:00,SystemResetWarning,0831.7,5.00,000.00,027.7,026.3,000.0,036.0,029.5,33.0,0002.1,0015.64,0007.32,0006.01
2023-08-25 01:12:00,SystemResetWarning,0831.7,4.97,000.00,027.8,025.6,000.0,035.9,029.4,33.0,0002.1,0016.44,0007.35,0006.00
2023-08-25 01:13:00,SystemResetWarning,0831.6,5.00,000.00,027.7,024.2,000.0,035.8,029.1,33.0,0002.0,0017.99,0007.38,0006.00
2023-08-25 01:14:00,SystemResetWarning,0831.7,5.00,000.00,027.6,023.8,000.0,035.8,028.9,33.1,0002.0,0019.17,0007.46,0005.98
2023-08-25 01:15:00,SystemResetWarning,0831.7,5.01,000.00,027.5,024.0,000.0,035.8,028.9,33.2,0001.8,0019.91,0007.61,0005.99
2023-08-25 01:16:00,SystemResetWarning,0831.7,5.01,000.00,027.5,024.5,000.0,035.8,029.0,33.3,0002.0,0020.20,0007.66,0006.01
2023-08-25 01:17:00,SystemResetWarning,0831.7,4.99,000.00,027.5,024.9,000.0,035.8,029.1,33.2,0002.3,0020.89,0007.61,0006.00
2023-08-25 01:18:00,SystemResetWarning,0831.7,5.00,000.00,027.6,025.4,000.0,035.9,029.3,33.1,0002.4,0021.26,0007.66,0006.00
2023-08-25 01:19:00,SystemResetWarning,0831.7,5.00,000.00,027.6,025.8,000.0,035.9,029.4,33.0,0002.1,0021.04,0007.66,0006.01
2023-08-25 01:20:00,SystemResetWarning,0831.7,5.01,000.00,027.7,026.1,000.0,035.9,029.5,33.0,0002.0,0021.03,0007.70,0006.01
2023-08-25 01:21:00,SystemResetWarning,0831.7,5.00,000.00,027.7,025.5,000.0,035.9,029.3,32.9,0001.5,0020.68,0007.60,0006.01
2023-08-25 01:22:00,SystemResetWarning,0831.7,4.98,000.00,027.6,024.1,000.0,035.8,029.0,33.0,0001.2,0020.15,0007.56,0006.01
2023-08-25 01:23:00,SystemResetWarning,0831.7,5.00,000.00,027.6,023.7,000.0,035.7,028.9,33.3,0001.0,0020.08,0007.55,0006.01
2023-08-25 01:24:00,SystemResetWarning,0831.7,5.01,000.00,027.5,023.9,000.0,035.7,028.9,33.4,0001.0,0019.38,0007.54,0006.02
2023-08-25 01:25:00,SystemResetWarning,0831.7,5.00,000.00,027.4,024.3,000.0,035.8,029.0,33.5,0001.1,0018.43,0007.55,0006.06
2023-08-25 01:26:00,SystemResetWarning,0831.8,5.00,000.00,027.5,024.8,000.0,035.8,029.1,33.5,0001.1,0017.73,0007.50,0006.09
2023-08-25 01:27:00,SystemResetWarning,0831.9,4.99,000.00,027.5,025.3,000.0,035.8,029.2,33.4,0001.1,0016.96,0007.44,0006.12
2023-08-25 01:28:00,SystemResetWarning,0831.8,5.00,000.00,027.5,025.7,000.0,035.8,029.3,33.5,0000.6,0016.06,0007.49,0006.17
2023-08-25 01:29:00,SystemResetWarning,0831.9,5.00,000.00,027.6,026.0,000.0,035.9,029.4,33.6,0000.3,0015.35,0007.51,0006.26
2023-08-25 01:30:00,SystemResetWarning,0831.9,4.99,000.00,027.7,026.2,000.0,035.9,029.4,33.6,0000.0,0015.22,0007.57,0006.33
2023-08-25 01:31:00,SystemResetWarning,0831.9,4.98,000.00,027.6,025.0,000.0,035.8,029.2,33.9,0000.2,0016.45,0007.59,0006.38
2023-08-25 01:32:00,SystemResetWarning,0831.9,5.00,000.00,027.5,023.8,000.0,035.7,028.9,34.3,0000.4,0016.68,0007.67,0006.43
2023-08-25 01:33:00,SystemResetWarning,0831.9,5.01,000.00,027.5,023.8,000.0,035.7,028.8,34.6,0000.7,0017.26,0007.77,0006.48
2023-08-25 01:34:00,SystemResetWarning,0831.9,4.98,000.00,027.4,024.1,000.0,035.7,028.8,35.0,0000.8,0017.33,0007.84,0006.54
2023-08-25 01:35:00,SystemResetWarning,0832.0,5.03,000.00,027.5,024.5,000.0,035.7,029.0,34.9,0000.7,0016.52,0007.88,0006.59
2023-08-25 01:36:00,SystemResetWarning,0832.0,4.96,000.00,027.7,025.0,000.0,035.8,029.2,34.5,0000.7,0016.56,0007.87,0006.60
2023-08-25 01:37:00,SystemResetWarning,0832.0,5.02,000.00,027.8,025.4,000.0,035.8,029.3,34.3,0001.0,0016.74,0007.85,0006.60
2023-08-25 01:38:00,SystemResetWarning,0832.0,5.01,000.00,027.9,025.8,000.0,035.9,029.4,34.1,0001.1,0017.87,0007.87,0006.59
2023-08-25 01:39:00,SystemResetWarning,0832.0,5.00,000.00,028.0,026.2,000.0,035.9,029.5,34.0,0001.4,0019.18,0007.88,0006.57
2023-08-25 01:40:00,SystemResetWarning,0832.1,4.99,000.00,028.1,025.9,000.0,035.9,029.4,33.9,0001.4,0019.26,0007.80,0006.52
2023-08-25 01:41:00,SystemResetWarning,0832.1,5.00,000.00,028.0,024.4,000.0,035.8,029.1,33.9,0001.8,0018.76,0007.71,0006.45
2023-08-25 01:42:00,SystemResetWarning,0832.1,5.00,000.00,027.9,023.7,000.0,035.8,028.9,34.1,0001.6,0017.39,0007.68,0006.42
2023-08-25 01:43:00,SystemResetWarning,0832.1,5.00,000.00,027.9,023.9,000.0,035.8,028.9,34.3,0001.6,0017.72,0007.64,0006.39
2023-08-25 01:44:00,SystemResetWarning,0832.1,5.01,000.00,027.8,024.3,000.0,035.9,029.0,34.4,0001.4,0017.37,0007.57,0006.35
2023-08-25 01:45:00,SystemResetWarning,0832.2,5.01,000.00,027.8,024.8,000.0,035.9,029.1,34.5,0001.2,0018.10,0007.53,0006.32
2023-08-25 01:46:00,SystemResetWarning,0832.2,5.00,000.00,027.9,025.2,000.0,036.0,029.3,34.5,0001.5,0019.29,0007.54,0006.30
2023-08-25 01:47:00,SystemResetWarning,0832.3,5.01,000.00,027.9,025.6,000.0,036.0,029.4,34.6,0001.8,0019.99,0007.50,0006.29
2023-08-25 01:48:00,SystemResetWarning,0832.3,4.99,000.00,027.9,026.0,000.0,036.1,029.4,34.5,0001.1,0020.51,0007.49,0006.27
2023-08-25 01:49:00,SystemResetWarning,0832.4,5.00,000.00,028.0,026.3,000.0,036.1,029.5,34.6,0000.9,0019.76,0007.45,0006.25
2023-08-25 01:50:00,SystemResetWarning,0832.4,4.99,000.00,028.0,026.1,000.0,036.1,029.5,34.4,0001.3,0018.21,0007.40,0006.24
2023-08-25 01:51:00,SystemResetWarning,0832.4,5.00,000.00,028.0,024.7,000.0,036.0,029.2,34.5,0001.5,0018.01,0007.37,0006.23
2023-08-25 01:52:00,SystemResetWarning,0832.4,5.00,000.00,027.9,023.8,000.0,035.9,029.0,34.4,0001.6,0018.64,0007.42,0006.23
2023-08-25 01:53:00,SystemResetWarning,0832.5,5.01,000.00,027.8,023.8,000.0,035.9,028.8,34.5,0001.7,0018.87,0007.41,0006.22
2023-08-25 01:54:00,SystemResetWarning,0832.5,5.01,000.00,027.7,024.2,000.0,035.9,028.9,34.8,0001.5,0018.97,0007.42,0006.21
2023-08-25 01:55:00,SystemResetWarning,0832.5,5.01,000.00,027.7,024.6,000.0,036.0,029.1,34.6,0001.6,0018.85,0007.43,0006.19
2023-08-25 01:56:00,SystemResetWarning,0832.5,5.00,000.00,027.8,025.1,000.0,036.0,029.2,34.6,0002.1,0018.97,0007.45,0006.18
2023-08-25 01:57:00,SystemResetWarning,0832.5,5.00,000.00,027.8,025.5,000.0,036.0,029.3,34.4,0002.2,0018.00,0007.46,0006.18
2023-08-25 01:58:00,SystemResetWarning,0832.5,5.00,000.00,027.8,025.9,000.0,036.1,029.4,34.2,0001.8,0016.90,0007.49,0006.16
2023-08-25 01:59:00,SystemResetWarning,0832.5,5.00,000.00,027.9,026.2,000.0,036.1,029.5,33.8,0001.9,0016.12,0007.47,0006.14
